Tracking 19636 objects as of 24-May-2019
HD Live streaming from Space Station
objects crossing your sky now

CHINASAT 5 (SPACENET 1)

Track CHINASAT 5 (SPACENET 1) now!
CHINASAT 5 (SPACENET 1) is classified as:


NORAD ID: 14985
Int'l Code: 1984-049A
Perigee: 35,859.5 km
Apogee: 35,884.2 km
Inclination: 15.1 °
Period: 1,440.1 minutes
Semi major axis: 42242 km
RCS: 3.5119 m2 (large)
Launch date: May 23, 1984
Source: People's Republic of China (PRC)
Launch site: FRENCH GUIANA (FRGUI)
aabbcc
Your satellite tracking list
Your tracking list is empty




NASA's NSSDC Master Catalog

Two Line Element Set (TLE):
1 14985U 84049A   19142.95960404 -.00000284  00000-0  00000+0 0  9990
2 14985  15.1012   9.6861 0002920 288.1226 255.0352  0.99993787105471
Source of the keplerian elements: AFSPC